Wind_Speed
13 16 16 15 15 15 16 16 15 14 13 13 12 10 9 9 9 10 9 8 7 8 8 10 10 10 11 11 11 10 10 10 11 12 13 15 13 12 12 12 12 12 12
13 16 15 14 15 15 16 15 14 13 13 11 11 10 9 10 10 10 11 9 8 8 8 8 8 8 8 8 8 8 7 8 8 10 12 12 12 10 9 9 9 9 9
13 14 13 12 13 15 15 14 14 13 11 9 8 8 8 9 9 10 10 9 9 7 8 8 8 7 7 7 7 7 6 6 7 6 8 10 10 10 8 7 7 6 6
12 13 11 10 12 14 14 13 13 12 11 9 7 6 6 6 6 7 8 8 8 7 7 7 7 6 6 7 7 7 6 7 5 4 6 8 9 10 8 7 6 6 6
12 10 9 10 11 13 13 12 12 12 11 9 7 6 5 5 4 4 4 5 6 7 6 6 5 5 5 6 7 8 8 9 6 3 4 7 9 9 8 7 7 6 5
10 8 8 9 10 11 11 11 11 11 10 9 8 8 7 5 4 4 3 3 4 5 5 4 4 3 4 4 5 7 8 9 8 3 2 6 7 6 6 6 6 5 5
9 7 7 8 9 9 10 9 9 8 8 7 7 6 5 5 5 4 3 3 1 1 2 2 3 3 2 2 3 5 7 8 8 7 5 3 4 3 3 4 4 4 5
7 5 5 6 6 6 7 8 8 7 6 6 5 4 3 3 3 4 4 4 3 2 3 4 4 3 2 2 2 2 5 8 9 7 5 4 4 3 2 3 5 5 5
5 5 5 5 6 7 8 9 10 10 8 7 7 6 6 7 5 4 5 5 5 6 5 6 6 6 6 5 5 5 6 7 8 7 6 8 8 5 6 7 7 8 7
6 5 5 6 8 9 9 9 9 10 10 11 12 12 11 11 10 9 7 7 7 8 8 9 10 9 9 9 8 8 7 8 8 8 7 7 8 8 7 8 10 11 10
7 8 9 9 10 10 11 11 10 11 13 13 13 13 15 14 12 12 11 9 9 10 12 13 12 12 11 12 13 11 9 8 12 12 11 8 7 9 9 11 10 11 12
6 9 11 10 8 9 8 9 9 9 11 13 13 12 14 15 16 15 15 14 11 12 13 15 15 16 15 15 15 17 16 13 13 11 12 10 10 9 10 12 10 10 11
7 6 6 7 8 10 11 11 11 11 11 12 13 14 15 14 14 15 16 15 13 16 17 18 18 16 16 15 16 19 20 20 19 15 14 10 8 8 11 12 8 9 10
4 6 7 8 9 11 11 11 12 13 13 13 13 13 13 13 15 15 14 16 16 17 17 19 21 22 21 21 19 22 20 20 18 21 20 16 12 11 12 12 11 11 10
7 7 9 10 10 11 12 12 12 12 12 12 12 12 12 11 12 13 13 13 14 15 16 18 19 21 23 22 23 22 23 25 24 22 23 20 18 18 18 15 12 14 14
10 11 12 13 12 12 13 13 13 12 12 12 13 13 12 12 12 12 12 13 13 13 14 15 17 19 21 22 24 26 25 26 25 24 24 24 23 21 27 20 19 18 14
10 11 11 11 12 12 11 11 12 12 13 14 14 13 14 14 15 15 14 14 14 13 13 13 14 15 16 17 20 25 27 26 27 27 27 29 26 28 21 22 17 17 14
10 11 10 10 11 11 12 12 11 12 12 13 15 16 16 15 15 16 15 15 14 12 12 12 12 13 13 13 14 19 21 24 28 32 32 32 29 30 29 28 25 27 26
9 10 11 13 13 13 13 13 13 13 14 14 14 14 15 16 16 16 16 15 14 14 14 14 14 12 10 10 13 14 13 16 22 27 33 35 33 35 33 32 35 31 31
10 12 13 14 15 16 17 16 16 16 16 16 16 17 17 17 17 17 17 16 16 15 15 16 16 15 12 11 13 13 12 12 13 19 25 31 35 37 38 37 36 35 34
9 12 14 14 15 16 17 18 18 17 16 16 16 17 18 18 17 18 18 17 17 18 17 17 17 18 15 11 11 15 14 13 14 14 16 23 26 30 35 39 34 32 31
11 11 14 15 15 17 17 17 18 18 17 17 17 16 15 16 18 19 19 19 19 18 18 20 19 18 21 19 12 10 13 16 16 17 16 19 18 12 18 25 29 27 28
13 14 13 16 15 17 18 18 18 18 19 19 19 20 20 20 19 17 18 19 20 22 23 22 22 22 19 20 23 19 15 15 15 20 21 19 20 20 24 26 26 25 29
13 15 15 15 15 15 15 16 16 18 18 19 20 21 23 23 24 25 25 24 24 24 24 24 25 26 26 23 20 23 25 24 23 20 18 20 22 21 23 26 28 26 27
14 15 16 16 16 16 15 15 14 17 19 21 23 24 25 26 27 27 29 32 33 31 30 30 29 27 27 28 28 25 24 25 28 32 28 21 21 21 22 26 29 26 28
16 18 18 18 19 19 18 17 20 22 25 27 28 28 28 29 30 31 31 33 35 37 38 37 34 33 32 31 30 31 31 31 31 32 35 34 28 24 22 24 29 31 30
Wind_Direction
77 74 69 64 66 67 69 74 79 78 78 77 77 75 70 71 68 64 68 70 64 60 59 69 75 77 77 73 73 71 75 79 85 88 89 91 83 84 89 90 90 89 89
80 77 71 69 73 71 72 74 81 83 84 77 74 69 69 69 63 58 63 60 69 68 70 73 74 71 72 71 73 73 72 79 76 79 82 83 86 73 72 87 90 92 93
80 79 72 71 71 74 71 72 74 76 79 82 81 76 64 59 58 56 52 47 50 74 79 77 67 55 50 51 53 58 64 68 81 86 90 90 92 83 74 63 70 78 83
88 77 76 75 74 74 73 72 71 71 73 76 79 80 79 78 77 58 48 38 40 60 74 78 75 56 39 30 26 26 38 61 95 92 86 83 76 71 62 57 54 57 59
85 86 81 73 71 69 65 65 67 67 62 58 57 59 57 49 53 85 81 61 66 63 68 73 64 49 43 27 13 8 13 41 63 73 78 79 59 47 42 38 38 43 52
94 82 76 70 63 63 63 58 52 52 55 50 46 38 28 21 15 3 21 69 87 97 102 96 76 52 30 24 13 360 356 16 23 7 118 84 63 42 28 23 19 18 19
89 79 63 59 55 54 46 45 46 50 46 41 40 38 33 13 348 343 341 333 10 100 120 135 146 145 115 39 3 348 341 347 6 12 3 11 84 55 19 359 347 346 356
86 70 49 35 34 33 32 30 21 18 19 23 17 9 5 348 337 327 309 281 257 231 220 212 208 219 239 253 264 297 321 328 339 347 340 338 328 334 334 326 318 320 330
72 50 28 17 8 355 356 352 355 348 344 344 340 341 339 324 319 299 268 269 275 273 269 270 257 244 232 238 254 282 291 305 314 320 324 320 296 309 319 318 317 309 310
52 12 356 336 335 334 339 336 349 331 321 316 316 316 312 311 314 321 302 287 266 263 266 265 268 273 271 256 246 248 265 284 293 304 314 298 301 303 307 306 312 313 308
11 346 338 335 330 322 324 318 321 311 307 302 300 299 294 294 294 292 291 285 284 276 272 270 272 273 276 279 274 261 253 274 291 294 285 298 339 330 317 313 308 304 302
348 325 323 333 328 337 346 348 346 330 318 318 316 305 301 303 302 296 290 292 285 287 286 284 281 279 275 270 268 273 271 251 254 271 279 274 293 309 320 311 310 306 302
327 338 2 358 349 342 346 346 337 329 325 318 315 313 314 313 308 303 304 303 289 278 282 282 284 281 279 277 273 269 265 272 271 259 255 272 264 289 294 293 279 290 289
31 9 356 353 345 351 345 341 338 331 329 326 322 318 317 316 310 308 307 302 297 289 281 276 274 272 271 272 275 271 277 273 264 268 276 268 260 259 271 275 285 290 284
22 13 3 358 0 353 350 347 346 339 336 331 324 321 320 313 310 311 308 301 297 296 294 292 284 276 279 273 269 264 272 275 273 273 269 269 265 269 270 265 282 289 287
14 7 4 358 356 349 348 343 339 338 337 336 331 327 325 321 317 314 313 307 302 298 296 295 292 291 292 288 277 273 264 264 270 278 272 264 259 255 259 258 274 266 268
13 9 2 353 352 348 347 349 346 342 340 334 331 331 330 329 327 322 320 314 307 304 304 304 302 299 293 283 276 269 266 261 265 258 261 256 267 264 265 253 267 260 259
11 11 2 359 358 355 353 348 343 337 332 328 328 325 324 323 321 318 318 315 313 314 316 315 313 312 309 298 282 273 271 266 259 257 256 258 258 260 261 265 259 261 264
6 3 3 3 1 2 359 355 349 340 332 329 326 324 322 318 318 316 313 310 310 314 319 318 308 306 313 316 302 297 290 273 264 262 260 258 256 258 259 260 260 259 263
357 356 360 2 358 356 355 356 356 352 344 336 332 329 325 320 317 314 312 313 316 318 320 318 313 308 308 322 311 312 304 297 280 267 262 260 258 254 256 259 261 259 264
348 346 348 356 357 352 351 351 349 352 351 345 341 335 330 326 321 317 317 320 320 318 315 315 314 309 306 309 317 310 306 305 298 289 281 268 263 261 259 257 259 264 264
336 341 337 346 349 342 343 343 343 346 346 340 340 338 334 330 325 324 325 323 322 320 317 314 313 313 313 307 303 294 292 294 291 287 284 289 295 292 279 272 270 274 265
324 324 329 329 337 334 335 338 341 341 342 342 337 334 331 329 326 324 325 324 325 325 322 319 316 311 310 313 311 305 288 272 272 275 282 276 272 263 269 270 270 272 267
308 308 315 317 322 321 327 334 338 337 339 340 339 336 333 330 327 327 328 327 326 324 320 319 319 317 312 307 303 303 304 297 286 265 262 272 277 276 271 269 270 268 269
309 305 305 307 309 312 316 327 329 334 341 344 345 341 339 334 333 331 329 328 326 324 321 319 316 311 307 306 303 297 290 289 292 291 279 264 266 268 269 270 271 267 263
303 304 304 298 300 305 311 322 330 340 340 340 340 337 334 332 330 327 324 323 321 320 319 317 314 312 309 306 304 301 295 290 286 282 281 281 271 257 255 261 267 269 267
Height
3210 3208 3208 3208 3207 3207 3205 3203 3202 3201 3201 3200 3200 3200 3199 3198 3197 3196 3196 3195 3195 3193 3192 3191 3190 3189 3187 3186 3185 3185 3184 3183 3182 3180 3178 3177 3177 3177 3176 3175 3174 3175 3174
3211 3210 3209 3209 3208 3207 3205 3204 3203 3202 3201 3201 3201 3201 3200 3198 3198 3198 3197 3196 3195 3194 3194 3194 3192 3192 3190 3189 3188 3187 3186 3185 3184 3183 3182 3180 3179 3179 3179 3178 3176 3176 3175
3212 3211 3211 3211 3210 3208 3207 3206 3205 3203 3203 3202 3202 3202 3201 3201 3200 3199 3198 3198 3196 3195 3195 3195 3194 3194 3193 3191 3190 3189 3188 3187 3186 3185 3184 3183 3182 3181 3181 3180 3179 3179 3178
3212 3212 3212 3212 3210 3209 3208 3207 3206 3205 3204 3204 3203 3202 3201 3200 3200 3200 3200 3199 3198 3197 3196 3196 3195 3195 3194 3193 3192 3191 3189 3189 3189 3187 3186 3185 3183 3182 3182 3181 3181 3180 3180
3213 3213 3213 3213 3212 3210 3210 3209 3208 3206 3206 3205 3204 3203 3203 3202 3201 3199 3199 3199 3198 3198 3198 3197 3196 3195 3194 3194 3193 3191 3191 3191 3190 3188 3187 3186 3185 3184 3183 3183 3182 3181 3181
3214 3215 3215 3214 3213 3212 3211 3210 3209 3208 3207 3206 3206 3205 3204 3204 3203 3202 3200 3199 3198 3197 3197 3197 3197 3196 3195 3194 3193 3192 3191 3191 3190 3190 3188 3186 3185 3185 3185 3184 3183 3183 3182
3215 3216 3216 3215 3214 3212 3212 3211 3210 3208 3207 3207 3206 3205 3204 3203 3203 3201 3201 3200 3199 3198 3198 3197 3196 3194 3194 3193 3193 3192 3191 3190 3190 3189 3189 3188 3185 3186 3185 3185 3184 3184 3183
3216 3216 3216 3215 3214 3213 3211 3210 3209 3209 3208 3206 3205 3204 3203 3202 3201 3200 3199 3198 3197 3197 3196 3195 3195 3195 3195 3193 3192 3191 3189 3189 3189 3189 3188 3187 3186 3186 3185 3185 3185 3184 3183
3217 3216 3216 3215 3214 3213 3212 3211 3210 3209 3207 3206 3205 3204 3203 3201 3200 3198 3197 3197 3196 3196 3195 3194 3193 3193 3192 3191 3191 3191 3190 3188 3187 3187 3187 3187 3186 3185 3185 3185 3184 3183 3183
3217 3216 3216 3215 3214 3213 3212 3210 3210 3208 3206 3205 3204 3203 3202 3201 3201 3200 3198 3197 3195 3194 3193 3192 3192 3192 3192 3190 3188 3187 3187 3187 3186 3186 3185 3185 3184 3185 3184 3184 3184 3183 3182
3217 3215 3214 3213 3212 3210 3208 3207 3206 3205 3203 3202 3201 3200 3199 3198 3198 3197 3197 3196 3194 3193 3192 3190 3190 3190 3191 3191 3189 3186 3185 3185 3184 3185 3184 3184 3183 3183 3183 3183 3182 3181 3181
3216 3214 3213 3212 3211 3208 3208 3206 3205 3203 3201 3199 3198 3196 3195 3195 3194 3194 3193 3193 3194 3192 3191 3190 3189 3188 3188 3187 3187 3185 3184 3182 3180 3180 3181 3181 3181 3182 3181 3180 3180 3179 3178
3215 3214 3212 3211 3209 3208 3207 3205 3204 3202 3200 3199 3197 3195 3193 3193 3191 3190 3189 3188 3189 3188 3188 3186 3186 3186 3185 3184 3183 3183 3182 3181 3180 3178 3177 3178 3178 3178 3178 3177 3176 3176 3176
3215 3214 3213 3211 3210 3207 3207 3204 3203 3200 3199 3197 3196 3194 3192 3191 3189 3187 3187 3186 3185 3183 3182 3182 3180 3180 3180 3179 3180 3180 3179 3177 3177 3176 3177 3177 3175 3174 3175 3175 3175 3174 3174
3215 3214 3212 3211 3208 3206 3205 3203 3202 3200 3198 3197 3195 3193 3191 3189 3187 3185 3184 3183 3181 3179 3177 3176 3175 3174 3174 3174 3174 3175 3174 3173 3172 3173 3172 3172 3172 3172 3172 3171 3172 3171 3171
3214 3213 3211 3209 3207 3206 3204 3203 3201 3198 3196 3195 3193 3192 3190 3188 3186 3184 3182 3181 3178 3176 3174 3172 3171 3170 3169 3169 3168 3167 3167 3167 3167 3168 3169 3168 3167 3166 3168 3168 3167 3168 3167
3214 3212 3210 3209 3207 3205 3203 3202 3200 3198 3196 3194 3192 3190 3188 3187 3184 3182 3181 3179 3176 3174 3171 3169 3167 3166 3165 3163 3161 3159 3160 3161 3161 3161 3161 3161 3164 3162 3160 3161 3163 3163 3163
3212 3211 3210 3208 3206 3204 3202 3201 3199 3196 3195 3194 3192 3190 3187 3185 3182 3181 3179 3177 3174 3171 3169 3166 3164 3163 3161 3159 3156 3153 3154 3154 3154 3153 3153 3154 3156 3156 3156 3156 3157 3157 3158
3211 3210 3208 3206 3204 3203 3202 3200 3199 3198 3194 3192 3190 3188 3186 3183 3181 3178 3176 3174 3171 3168 3165 3163 3161 3160 3158 3155 3152 3150 3150 3149 3147 3145 3146 3147 3148 3148 3149 3150 3151 3152 3154
3211 3210 3208 3206 3203 3201 3199 3198 3198 3196 3194 3192 3189 3186 3184 3181 3179 3176 3173 3171 3169 3166 3163 3160 3158 3156 3155 3152 3149 3147 3145 3145 3144 3142 3140 3140 3141 3142 3141 3142 3143 3144 3147
3211 3209 3207 3206 3203 3200 3199 3197 3196 3195 3193 3190 3187 3185 3182 3179 3176 3174 3171 3168 3165 3163 3160 3157 3155 3153 3151 3150 3147 3144 3142 3140 3139 3138 3137 3136 3135 3137 3136 3136 3135 3136 3137
3210 3209 3205 3203 3201 3199 3198 3196 3194 3192 3190 3188 3186 3183 3181 3177 3174 3171 3168 3165 3162 3160 3157 3154 3151 3149 3146 3144 3144 3143 3140 3138 3135 3133 3132 3130 3131 3131 3129 3129 3129 3129 3130
3207 3206 3204 3202 3201 3200 3197 3195 3193 3190 3188 3186 3184 3181 3178 3176 3173 3169 3166 3163 3160 3156 3153 3150 3147 3145 3143 3140 3136 3136 3136 3134 3132 3128 3127 3126 3125 3126 3124 3122 3123 3123 3122
3205 3204 3204 3202 3200 3198 3196 3193 3191 3189 3187 3184 3181 3178 3175 3172 3168 3165 3162 3159 3156 3153 3150 3147 3144 3140 3137 3136 3135 3131 3127 3125 3124 3125 3124 3121 3119 3120 3118 3114 3114 3115 3115
3203 3202 3201 3200 3198 3196 3194 3194 3191 3188 3184 3181 3178 3175 3171 3167 3165 3162 3158 3153 3150 3147 3144 3141 3138 3136 3133 3130 3127 3126 3125 3121 3117 3113 3113 3116 3115 3113 3112 3111 3107 3107 3106
3200 3199 3198 3197 3195 3193 3192 3190 3187 3183 3180 3177 3174 3172 3168 3164 3161 3157 3155 3151 3147 3141 3137 3134 3132 3129 3125 3123 3121 3118 3116 3113 3111 3108 3104 3103 3105 3108 3106 3103 3100 3099 3098